Location: Altenhof
(50.2418°N, 10.8789°E)
Time: 04:01:46
(UTC+00:00)

Daily predictions for brighter satellites

Satellite Brightness Start Highest point End
(mag) Time Altitude Azimuth Time Altitude Azimuth Time Altitude Azimuth
ATLAS 2AS CENTAUR R/B 4.3 01:39:29 32° N 01:39:29 32° N 01:44:51 10° NE
Cosmos 2237 Rocket 4.2 02:06:51 24° ENE 02:06:51 24° ENE 02:09:15 10° NE
Cosmos 2219 Rocket 4.1 02:17:02 24° NNE 02:17:02 24° NNE 02:19:10 10° NNE
CZ-4C R/B 3.9 02:16:59 29° ENE 02:16:59 29° ENE 02:20:08 10° NE
Cosmos 2360 Rocket 4.4 02:28:50 18° N 02:28:50 18° N 02:30:32 10° NNE
COSMOS 2428 4.4 02:34:32 28° NNE 02:34:32 28° NNE 02:37:10 10° NNE
Cosmos 1943 Rocket 4.0 02:31:37 25° NNE 02:32:51 27° NE 02:37:30 10° ESE
USA 215 3.6 02:30:22 10° ENE 02:35:33 59° NE 02:35:33 59° NE
SL-16 R/B 3.5 02:46:27 33° ESE 02:46:37 33° ESE 02:51:38 10° NE
SL-16 R/B 4.5 02:57:37 13° NNW 02:57:37 13° NNW 02:59:16 10° N
NOSS 3-1 (A) 3.9 02:56:40 87° NW 02:56:51 90° NE 03:05:24 10° SE
Cosmos 2369 Rocket 3.8 02:53:23 17° N 02:57:03 32° NE 03:02:09 10° ESE
Nadezhda 3 Rocket 4.2 03:07:35 66° N 03:07:35 66° N 03:12:58 10° N
Cosmos 1241 Rocket 4.5 03:17:38 71° N 03:17:38 71° N 03:23:19 10° NE
ADEOS II 4.2 03:13:14 10° N 03:14:19 15° NNW 03:14:19 15° NNW
Cosmos 2333 Rocket 3.6 03:19:49 27° NNW 03:19:49 27° NNW 03:23:10 10° NNE
IDEFIX/ARIANE 42P 3.5 03:18:32 10° N 03:21:52 39° N 03:21:52 39° N
Cosmos 2251 Rocket 3.9 03:28:27 54° SE 03:29:09 60° ESE 03:34:23 10° NNE
ATLAS 2AS CENTAUR R/B 4.3 03:26:54 20° NW 03:31:00 31° N 03:37:35 10° ENE
PAYLOAD A 4.0 03:29:35 10° NNE 03:34:28 76° ESE 03:34:30 75° ESE
Cosmos 1535 Rocket 4.3 03:34:00 10° NNW 03:40:14 70° W 03:46:22 10° S
NOSS 0 Rocket 4.4 03:40:41 45° NW 03:40:41 45° NW 03:46:22 10° NNE
Cosmos 2322 Rocket 4.5 03:41:37 11° NNW 03:42:06 11° NNW 03:43:37 10° N
CZ-4B R/B 4.3 03:39:32 10° NNE 03:42:55 32° E 03:44:12 25° SE
ATLAS CENTAUR R/B 1.7 03:46:18 74° NE 03:46:18 74° NE 03:50:21 10° NE
Lacrosse 5 1.7 03:47:37 85° SW 03:47:39 85° SSW 03:52:43 10° SE
Cosmos 2237 Rocket 2.7 03:48:41 42° NW 03:48:41 42° NW 03:53:29 10° NNE
Cosmos 1743 Rocket 4.3 03:47:40 10° N 03:51:55 52° ENE 03:56:09 10° SSE
MSX 3.8 03:48:19 10° N 03:53:58 60° WNW 03:54:26 58° W
H-2A R/B 3.2 03:49:53 10° NNE 03:54:12 56° ESE 03:57:25 18° S
GEOS 3 Rocket 4.3 03:49:13 10° NE 03:54:24 52° SE 03:57:21 25° SSW
ADEOS 3.4 03:50:42 10° N 03:55:54 67° WNW 03:56:19 64° W
BREEZE-M DEB (TANK) 3.5 03:54:29 42° W 03:57:04 83° N 04:01:13 10° E
CZ-2C R/B 2.4 03:52:25 10° NNE 03:57:39 83° WNW 03:59:16 45° SSW
Cosmos 2219 Rocket 3.7 03:58:45 21° NNW 03:58:45 21° NNW 04:02:36 10° NNE
Meteor 1-31 Rocket 3.1 03:55:01 10° NNE 03:58:49 64° ESE 03:59:23 55° SSE
STARLINK-1178 4.5 04:00:17 34° NE 04:00:17 34° NE 04:02:22 10° ENE
BREEZE-M DEB (TANK) 4.1 03:58:30 51° SSW 03:59:16 60° SSE 04:08:29 10° ENE
Cosmos 1356 Rocket 3.3 04:01:12 83° NNE 04:01:12 83° NNE 04:05:10 10° NNE
STARLINK-1120 4.4 04:02:08 36° NE 04:02:08 36° NE 04:04:17 10° ENE
CZ-4C R/B 2.8 04:02:10 40° NW 04:02:59 42° NNW 04:09:08 10° NE
STARLINK-1131 4.3 04:04:12 37° NE 04:04:12 37° NE 04:06:26 10° ENE
Meteor 2-10 Rocket 3.4 04:03:59 52° SW 04:05:03 65° WNW 04:10:13 10° N
STARLINK-1190 4.2 04:06:14 39° NE 04:06:14 39° NE 04:08:33 10° ENE
Cosmos 1842 Rocket 3.9 04:03:04 10° S 04:07:30 68° E 04:11:59 10° NNE
Cosmos 2360 Rocket 4.4 04:10:35 11° NNW 04:11:33 11° NNW 04:13:14 10° N
STARLINK-1136 4.2 04:15:33 33° NE 04:15:33 33° NE 04:17:27 10° ENE
Cosmos 1934 Rocket 4.3 04:09:06 10° NNW 04:14:55 41° W 04:20:46 10° SSW
COSMOS 2428 4.3 04:16:33 18° NW 04:16:54 18° NNW 04:20:49 10° N
Cosmos 1943 Rocket 2.0 04:13:12 20° NW 04:17:06 69° WSW 04:22:33 10° SSE
NOSS 2-1 (E) 3.0 04:17:29 70° NW 04:17:29 70° NW 04:21:23 10° NE
ALOS 3.2 04:13:52 10° NNE 04:18:26 50° E 04:22:58 10° S
USA 215 3.7 04:13:22 10° ENE 04:19:40 52° N 04:22:54 29° WNW
Cosmos 1869 4.5 04:16:12 10° SSE 04:19:59 44° E 04:23:47 10° NNE
CZ-4B R/B 3.9 04:17:10 10° N 04:21:27 76° WNW 04:24:21 21° SSW
Cosmos 921 Rocket 3.5 04:17:23 10° NNW 04:21:51 63° ENE 04:26:11 10° SSE
COSMO-SKYMED 1 2.5 04:19:57 10° SSE 04:24:18 90° SSW 04:28:41 10° NNW
STARLINK-1129 3.4 04:24:44 50° N 04:24:45 50° N 04:27:54 10° ENE
USA 116 4.3 04:21:59 10° SE 04:25:00 43° ENE 04:27:59 10° N
STARLINK-1134 3.4 04:26:33 49° N 04:26:39 50° N 04:29:49 10° ENE
STARLINK-1135 3.4 04:28:49 49° NNW 04:29:01 49° N 04:32:11 10° ENE
SL-16 R/B 2.4 04:28:22 33° WSW 04:30:34 50° NW 04:36:06 10° NNE
STARLINK-1141 3.4 04:30:54 47° NNW 04:31:11 49° N 04:34:21 10° ENE
STARLINK-1140 3.4 04:32:54 46° NNW 04:33:16 49° N 04:36:26 10° ENE
Cosmos 2221 2.4 04:30:18 10° S 04:34:34 84° W 04:38:54 10° N
STARLINK-1156 3.4 04:34:56 45° NNW 04:35:23 49° N 04:38:34 10° ENE
STARLINK-1170 3.3 04:35:55 41° N 04:35:55 41° N 04:38:22 10° ENE
Cosmos 1605 Rocket 4.3 04:31:20 10° NNW 04:37:07 41° W 04:42:49 10° SSW
STARLINK-1148 3.4 04:36:58 43° NW 04:37:31 49° N 04:40:41 10° ENE
FENGYUN 3A 3.9 04:32:40 10° NNE 04:38:08 72° ESE 04:43:34 10° S
STARLINK-1158 3.5 04:39:04 41° NW 04:39:42 49° N 04:42:53 10° ENE
Cosmos 2369 Rocket 2.2 04:35:48 10° NW 04:41:26 58° WSW 04:47:02 10° S
Aureole 2 Rocket 1.9 04:42:36 46° NW 04:43:18 66° WSW 04:46:24 10° SSE
Cosmos 2016 Rocket 4.4 04:37:52 10° N 04:44:05 69° ENE 04:50:22 10° SSE
Cosmos 614 Rocket 4.0 04:40:18 10° SSW 04:45:27 81° ESE 04:50:41 10° NNE
Cosmos 1603 3.9 04:40:59 10° SSW 04:46:41 78° ESE 04:52:24 10° NNE
Meteor PRIRODA 3.7 04:46:39 10° N 04:50:18 56° WNW 04:53:55 10° SSW
Cosmos 1862 3.9 04:48:15 10° N 04:52:12 60° ENE 04:56:07 10° SSE
Cosmos 1943 3.5 04:47:15 10° SSW 04:52:48 69° ESE 04:58:25 10° NNE
Cosmos 2263 4.2 04:47:49 10° NW 04:53:28 63° WSW 04:59:02 10° SSE
STARLINK-1179 3.1 04:55:12 34° NW 04:55:52 43° N 04:58:24 10° E
STARLINK-1176 3.1 04:55:41 33° NW 04:56:23 43° N 04:58:55 10° E
Meteor 2-3 Rocket 4.2 04:51:34 10° NNW 04:56:48 37° W 05:02:03 10° SSW
CZ-4B R/B 3.9 04:54:35 10° NNE 04:59:51 56° ESE 05:05:02 10° S
Cosmos 1656 Rocket 3.6 04:56:21 10° NNW 05:02:03 81° WSW 05:07:45 10° SSE
IDEFIX/ARIANE 42P 4.3 04:59:53 10° NNW 05:02:27 14° NW 05:02:41 14° NW
Cosmos 2333 Rocket 4.2 05:02:09 10° NW 05:04:16 12° NNW 05:06:22 10° N
Cosmos 1484 Rocket 3.3 05:01:37 10° N 05:05:17 38° WNW 05:08:58 10° SW
Cosmos 1633 2.6 05:02:02 10° NNW 05:05:37 55° W 05:09:10 10° S
Cosmos 1727 Rocket 4.2 05:00:46 10° SSW 05:06:43 48° WNW 05:12:41 10° N
Cosmos 1238 4.2 05:03:59 10° SSW 05:06:56 52° WNW 05:10:01 10° N
NOAA 6 4.3 05:03:37 10° NNE 05:08:49 74° ESE 05:13:59 10° S
Cosmos 1805 Rocket 3.5 05:06:01 10° NNW 05:10:17 59° W 05:14:33 10° S
SKYMED 2 4.3 05:08:43 10° SSW 05:12:35 31° W 05:16:29 10° NNW
Cosmos 2173 Rocket 4.1 05:06:53 10° NNW 05:13:02 56° W 05:19:04 10° SSW
Sich 1 2.9 05:10:49 10° NNW 05:15:06 71° W 05:19:22 10° S
STARLINK-1153 3.2 05:14:21 19° WNW 05:16:11 50° N 05:19:03 10° E
STARLINK-1180 3.2 05:14:33 19° WNW 05:16:24 50° N 05:19:17 10° E
STARLINK-1174 3.2 05:15:00 19° WNW 05:16:51 50° N 05:19:43 10° E
STARLINK-1139 3.2 05:15:13 19° WNW 05:17:05 50° N 05:19:57 10° E
NOSS 2-1 (C) 4.4 05:15:15 17° WNW 05:17:08 26° NNW 05:20:38 10° NNE
STARLINK-1133 3.2 05:15:25 19° WNW 05:17:18 50° N 05:20:10 10° E
STARLINK-1151 3.2 05:15:40 19° WNW 05:17:33 50° N 05:20:25 10° E
CZ-4B R/B 3.8 05:14:56 10° N 05:17:55 23° WNW 05:20:20 13° WSW
STARLINK-1160 3.2 05:16:18 18° WNW 05:18:13 51° N 05:21:05 10° E
STARLINK-1161 3.2 05:16:32 18° WNW 05:18:27 51° N 05:21:20 10° E
STARLINK-1145 3.2 05:16:44 18° WNW 05:18:40 51° N 05:21:32 10° E
Cosmos 1346 Rocket 4.3 05:15:05 10° N 05:18:48 39° ENE 05:22:27 10° SE
STARLINK-1172 3.2 05:16:57 18° WNW 05:18:53 51° N 05:21:45 10° E
STARLINK-1162 3.3 05:17:03 17° WNW 05:19:15 53° N 05:22:22 10° E
STARLINK-1182 3.2 05:17:23 18° WNW 05:19:20 51° N 05:22:13 10° E
STARLINK-1164 3.2 05:17:35 18° WNW 05:19:33 51° N 05:22:26 10° E
STARLINK-1168 3.2 05:17:49 18° WNW 05:19:47 51° N 05:22:40 10° E
PSLV R/B 4.2 05:16:48 10° N 05:20:16 37° WNW 05:23:45 10° SW
STARLINK-1183 3.2 05:18:27 17° WNW 05:20:27 51° N 05:23:20 10° E
STARLINK-1181 3.2 05:18:40 17° WNW 05:20:40 51° N 05:23:33 10° E
STARLINK-1157 3.3 05:18:51 17° WNW 05:21:08 53° N 05:24:16 10° E
NOSS 2-1 (D) 4.5 05:19:13 16° WNW 05:21:15 25° NNW 05:24:42 10° NNE
STARLINK-1196 3.2 05:19:20 17° WNW 05:21:22 52° N 05:24:15 10° E
STARLINK-1186 3.2 05:19:46 17° WNW 05:21:49 52° N 05:24:41 10° E
STARLINK-1185 3.2 05:19:58 17° WNW 05:22:02 52° N 05:24:55 10° E
STARLINK-1175 3.2 05:20:12 17° WNW 05:22:16 52° N 05:25:09 10° E
Cosmos 1238 Rocket 3.8 05:16:08 10° NNW 05:22:22 63° W 05:27:42 10° S
STARLINK-1147 3.2 05:20:24 17° WNW 05:22:29 52° N 05:25:22 10° E
STARLINK-1146 3.2 05:20:36 17° WNW 05:22:43 52° N 05:25:37 10° E
STARLINK-1152 3.2 05:20:50 16° WNW 05:22:57 52° N 05:25:49 10° E
Okean O Rocket 1.6 05:18:37 10° NNE 05:23:03 88° WNW 05:27:24 10° SSW
STARLINK-1195 3.2 05:21:03 16° WNW 05:23:10 52° N 05:26:03 10° E
STARLINK-1159 3.3 05:20:51 16° WNW 05:23:13 54° N 05:26:21 10° E
STARLINK-1137 3.2 05:21:16 16° WNW 05:23:23 52° N 05:26:17 10° E
STARLINK-1142 3.2 05:21:30 16° WNW 05:23:38 52° N 05:26:31 10° E
ATLAS 2AS CENTAUR R/B 3.6 05:16:04 10° NW 05:23:42 54° NE 05:30:45 10° ESE
STARLINK-1127 3.2 05:21:42 16° WNW 05:23:50 52° N 05:26:43 10° E
STARLINK-1184 3.2 05:21:56 16° WNW 05:24:04 52° N 05:26:57 10° E
Meteor 2-2 Rocket 4.5 05:18:11 10° SSW 05:24:05 56° WNW 05:30:03 10° N
STARLINK-1193 3.2 05:22:08 16° WNW 05:24:17 52° N 05:27:11 10° E
STARLINK-1194 3.2 05:22:21 16° WNW 05:24:30 52° N 05:27:23 10° E
PAYLOAD B 4.2 05:19:22 10° NNE 05:24:59 74° WNW 05:30:30 10° SSW
ATLAS CENTAUR R/B 2.9 05:22:30 14° WNW 05:25:21 24° NNW 05:28:54 10° NNE
STARLINK-1171 3.3 05:22:59 15° WNW 05:25:26 54° N 05:28:33 10° E
Cosmos 2100 Rocket 4.3 05:21:01 10° NNW 05:26:48 42° W 05:32:31 10° SSW
STARLINK-1155 3.3 05:24:44 14° WNW 05:27:17 55° N 05:30:25 10° E
Cosmos 1763 Rocket 4.3 05:23:10 10° NNW 05:28:26 56° ENE 05:33:39 10° SE
H-2A R/B 3.9 05:26:05 10° NNW 05:29:21 21° WNW 05:32:39 10° WSW
STARLINK-1166 3.3 05:26:53 14° WNW 05:29:30 56° N 05:32:38 10° E
Cosmos 1340 3.2 05:26:11 10° N 05:29:56 63° ENE 05:33:40 10° SSE
Lacrosse 5 3.2 05:26:51 13° W 05:30:03 22° SW 05:33:51 10° S
STARLINK-1165 3.3 05:28:43 13° WNW 05:31:26 56° N 05:34:35 10° E
STARLINK-1149 2.9 05:29:32 14° WNW 05:31:43 55° NNE 05:34:23 10° E
GEOS 3 Rocket 4.1 05:27:22 10° NE 05:32:23 45° NW 05:37:26 10° WSW
Meteor 1-31 Rocket 4.5 05:30:38 10° NNW 05:32:48 15° WNW 05:34:48 11° W
STARLINK-1169 3.3 05:30:43 13° WNW 05:33:31 57° NNE 05:36:39 10° E
Cosmos 2237 Rocket 4.0 05:30:53 10° WNW 05:33:45 14° NNW 05:36:37 10° N
Cosmos 2084 4.1 05:30:04 10° SSW 05:34:31 64° SE 05:38:58 10° NE
CZ-2C R/B 4.1 05:31:59 10° NNW 05:35:06 16° NW 05:38:11 10° W
STARLINK-1178 3.3 05:32:37 12° WNW 05:35:30 58° NNE 05:38:38 10° E
STARLINK-1118 3.1 05:34:18 10° SW 05:36:48 52° SSE 05:39:18 10° ENE
STARLINK-1132 2.9 05:34:49 12° WNW 05:37:20 59° NNE 05:40:05 10° E
STARLINK-1120 3.2 05:34:28 11° WNW 05:37:25 59° N 05:40:35 10° E
Cosmos 2061 Rocket 4.2 05:31:56 10° NNW 05:37:59 51° W 05:43:59 10° SSW
STARLINK-1070 3.3 05:36:33 10° SW 05:39:25 56° SSE 05:42:18 10° ENE
STARLINK-1131 3.2 05:36:36 11° WNW 05:39:38 60° NNE 05:42:48 10° E
STARLINK-1150 2.8 05:37:17 11° WNW 05:39:52 60° NNE 05:42:35 10° E
STARLINK-1124 3.0 05:37:18 10° WSW 05:40:12 66° SSE 05:43:07 10° ENE
ADEOS Rocket 3.3 05:34:16 10° S 05:40:26 59° W 05:47:20 10° NNW
STARLINK-1066 3.3 05:37:39 10° SW 05:40:31 57° SSE 05:43:25 10° ENE
STARLINK-1081 3.3 05:37:53 10° SW 05:40:46 57° SSE 05:43:39 10° ENE
STARLINK-1069 3.3 05:38:19 10° SW 05:41:11 57° SSE 05:44:05 10° ENE
STARLINK-1163 2.8 05:38:34 11° WNW 05:41:14 61° NNE 05:44:00 10° E
STARLINK-1085 3.3 05:38:33 10° SW 05:41:26 58° SSE 05:44:20 10° ENE
STARLINK-1086 3.2 05:38:46 10° SW 05:41:39 58° SSE 05:44:33 10° ENE
STARLINK-1190 3.2 05:38:38 10° WNW 05:41:46 61° NNE 05:44:56 10° E
STARLINK-1095 3.2 05:39:00 10° SW 05:41:53 58° SSE 05:44:46 10° ENE
STARLINK-1077 3.2 05:39:14 10° SW 05:42:06 58° SSE 05:45:00 10° ENE
Cosmos 1315 Rocket 4.1 05:38:29 10° SSE 05:42:16 45° E 05:46:02 10° NNE
STARLINK-1075 3.2 05:39:26 10° SW 05:42:20 58° SSE 05:45:13 10° ENE
STARLINK-1093 3.2 05:39:40 10° SW 05:42:33 59° SSE 05:45:27 10° ENE
STARLINK-1074 3.2 05:39:53 10° SW 05:42:46 59° SSE 05:45:39 10° ENE
STARLINK-1173 2.8 05:40:14 10° WNW 05:42:55 61° NNE 05:45:39 10° E
STARLINK-1087 3.2 05:40:08 10° SW 05:43:00 59° SSE 05:45:55 10° ENE
STARLINK-1088 3.2 05:40:21 10° SW 05:43:14 59° SSE 05:46:07 10° ENE
STARLINK-1177 2.8 05:40:37 10° WNW 05:43:19 61° NNE 05:46:01 10° E
STARLINK-1115 3.2 05:40:33 10° SW 05:43:26 60° SSE 05:46:21 10° ENE
STARLINK-1076 3.2 05:40:47 10° SW 05:43:41 60° SSE 05:46:35 10° ENE
STARLINK-1092 3.2 05:41:01 10° SW 05:43:54 60° SSE 05:46:48 10° ENE
STARLINK-1080 3.2 05:41:14 10° SW 05:44:07 60° SSE 05:47:01 10° ENE
STARLINK-1090 3.2 05:41:27 10° SW 05:44:21 60° SSE 05:47:15 10° ENE
STARLINK-1167 2.8 05:41:43 10° WNW 05:44:26 62° NNE 05:47:10 10° E
STARLINK-1089 3.2 05:41:41 10° SW 05:44:34 61° SSE 05:47:28 10° ENE
STARLINK-1107 3.2 05:41:54 10° SW 05:44:47 61° SSE 05:47:41 10° ENE
STARLINK-1109 3.2 05:42:06 10° SW 05:45:00 61° SSE 05:47:54 10° ENE
STARLINK-1091 3.1 05:42:22 10° SW 05:45:15 61° SSE 05:48:10 10° ENE
STARLINK-1114 4.4 05:41:33 10° SW 05:45:24 49° SSE 05:49:17 10° ENE
STARLINK-1072 3.1 05:42:35 10° SW 05:45:28 62° SSE 05:48:23 10° ENE
STARLINK-1096 3.1 05:42:49 10° SW 05:45:42 62° SSE 05:48:37 10° ENE
STARLINK-1079 3.1 05:43:02 10° SW 05:45:55 62° SSE 05:48:50 10° ENE
STARLINK-1073 4.5 05:42:06 10° SW 05:46:00 49° SSE 05:49:54 10° ENE
STARLINK-1116 3.1 05:43:16 10° SW 05:46:09 62° SSE 05:49:03 10° ENE
STARLINK-1094 3.1 05:43:42 10° SW 05:46:36 63° SSE 05:49:30 10° ENE
STARLINK-1117 3.1 05:43:55 10° SW 05:46:49 63° SSE 05:49:43 10° ENE
Cosmos 1151 Rocket 3.3 05:42:43 10° S 05:47:01 78° E 05:51:23 10° NNE
STARLINK-1078 3.1 05:44:09 10° SW 05:47:02 63° SSE 05:49:57 10° ENE
STARLINK-1108 3.1 05:44:22 10° SW 05:47:15 63° SSE 05:50:10 10° ENE
STARLINK-1071 3.1 05:44:36 10° SW 05:47:29 64° SSE 05:50:24 10° ENE
STARLINK-1110 3.1 05:44:49 10° SW 05:47:43 64° SSE 05:50:38 10° ENE
STARLINK-1122 3.1 05:45:16 10° WSW 05:48:09 64° SSE 05:51:04 10° ENE
STARLINK-1126 3.1 05:45:29 10° WSW 05:48:23 65° SSE 05:51:18 10° ENE
BREEZE M DEB (TANK) 4.1 05:44:58 10° W 05:48:28 63° SSW 05:59:34 10° ESE
STARLINK-1082 3.1 05:45:43 10° WSW 05:48:37 65° SSE 05:51:32 10° ENE
TELKOM 3 2.7 05:46:30 10° W 05:48:38 67° S 05:50:45 10° ESE
Cosmos 1328 Rocket 3.7 05:44:11 10° S 05:48:38 83° E 05:53:06 10° NNE
STARLINK-1100 3.1 05:45:56 10° WSW 05:48:49 65° SSE 05:51:45 10° ENE
STARLINK-1083 3.0 05:46:10 10° WSW 05:49:03 65° SSE 05:51:59 10° ENE
STARLINK-1125 3.0 05:46:24 10° WSW 05:49:17 66° SSE 05:52:13 10° ENE
STARLINK-1136 2.8 05:46:41 10° WNW 05:49:28 66° NNE 05:52:14 10° E
STARLINK-1130 (DARKSAT) 4.3 05:45:53 10° SW 05:49:46 52° SSE 05:53:40 10° ENE
AQUARIUS 4.4 05:45:45 10° NNE 05:50:16 76° ESE 05:54:46 10° S
STARLINK-1121 4.4 05:46:39 10° SW 05:50:35 53° SSE 05:54:32 10° ENE
Cosmos 1725 Rocket 4.2 05:45:38 10° NNW 05:51:39 52° W 05:57:41 10° SSW
